Weather in Olhopil

Ukraine / Vinnytsia Region     48°11′47″N   29°29′46″E
temp.,
°C
wind,
m/s
gust,
m/s
humid.,
%
clouds,
%
prec.,
mm/h
press.,
hPa
HPBL,
m
14 april, wed
wed1400:00+9sse51168100 0.0 1017364
03:00+8sse41073100 0.0 1016373
06:00+7sse4881100 0.0 1016321
09:00+8sse5873100 0.0 1016472
12:00+12sse6761100 0.0 10151206
15:00+13se5750100 0.0 10131803
18:00+11sse5661100 0.0 1013919
21:00+9s2268100 0.0 101348
15 april, thu
thu1500:00+8s2484100 0.3 1013248
03:00+7n2492100 2.1 1012272
06:00+7ne2595100 0.4 1010311
09:00+8ene3594100 0.9 1011404
12:00+8e2291100 1.3 1011354
15:00+8wsw1291100 3.0 1011233
18:00+8wsw1292100 0.6 1011112
21:00+8wsw3593100 0.7 1011234
16 april, fri
fri1600:00+7wnw6991100 0.3 1011469
03:00+5wnw6991100 0.8 1011407
06:00+4w6992100 0.4 1012382
09:00+3w6995100 1.0 1012393
12:00+2w5998100 1.2 1013409
15:00+3w6895100 1.3 1014605
18:00+3w5896100 0.0 1015536
21:00+3w4898100 0.1 1017376
17 april, sat
sat1700:00+3w4896100 0.0 1017367
03:00+3w3797100 0.1 1018349
06:00+3w3698100 0.0 1019369
09:00+4w3597100 0.0 1020358
12:00+5wsw3795100 0.0 1021595
15:00+5wsw2496100 0.0 1021419
18:00+7nnw128689 0.0 1021374
21:00+6nne2292100 0.0 102267
18 april, sun
sun1800:00+5ne119183 0.0 102120
03:00+5e1188100 0.0 102134
06:00+5e1186100 0.0 102110
09:00+8ene2375100 0.0 1021379
12:00+11e226191 0.0 10201032
15:00+12ese3354100 0.1 10191380
18:00+12ene3560100 0.0 1019736
21:00+9ne4875100 0.1 1019232